Regional Weather Roundup
Issued by NWS Northern Indiana

Home | Current Version | Previous Version | Graphics & Text | Print | Product List | Glossary On
Versions: 1 2 3 4 5 6 7 8 9 10 11 12 13 14 15 16 17 18 19 20 21 22 23 24 25 26 27 28 29 30 31 32 33 34 35 36 37 38 39 40 41 42 43 44 45 46 47 48 49 50
000
ASUS43 KIWX 251200
RWRIWX

KIWX WEATHER ROUNDUP
NATIONAL WEATHER SERVICE NORTHERN INDIANA
800 AM EDT THU MAY 25 2017

NOTE: "FAIR" INDICATES FEW OR NO CLOUDS BELOW 12,000 FEET WITH NO
SIGNIFICANT WEATHER AND/OR OBSTRUCTIONS TO VISIBILITY.

* THESE STATIONS ARE NOT UNDER NWS QUALITY CONTROL. THEY ALSO MAY NOT
  REPORT WEATHER SUCH AS PRECIPITATION OR FOG.

INZ001>027-251300-
NORTHERN INDIANA

CITY           SKY/WX    TMP DP  RH WIND       PRES   REMARKS
MICHIGAN CITY* CLOUDY    50  50 100 N9        29.54R
SOUTH BEND     CLOUDY    56  56 100 N12       29.51R
6HR MIN TEMP:  56; 6HR MAX TEMP:  58; 6HR PCP:  0.01;

GOSHEN         CLOUDY    59  54  83 N14       29.47R
6HR MIN TEMP:  58; 6HR MAX TEMP:  59; 6HR PCP:  0.02;

MONTICELLO*    CLOUDY    53  51  95 NW16G22   29.49R FOG
6HR MIN TEMP:  52; 6HR MAX TEMP:  54; 6HR PCP:  0.05;

ANGOLA*        CLOUDY    57  46  67 N9        29.45S
FORT WAYNE     CLOUDY    61  58  90 N13       29.42R FOG
6HR MIN TEMP:  58; 6HR MAX TEMP:  61; 6HR PCP:  0.10;

PERU/GRISSOM   CLOUDY    59  59 100 NW13      29.44R

$$
INZ028>050-251300-
CENTRAL INDIANA

CITY           SKY/WX    TMP DP  RH WIND       PRES   REMARKS
LAFAYETTE      CLOUDY    54  53  97 NW16G24   29.50R FOG
6HR MIN TEMP:  53; 6HR MAX TEMP:  54; 6HR PCP:  0.04;

KOKOMO*        LGT RAIN  59  57  93 N14       29.45R
6HR MIN TEMP:  57; 6HR MAX TEMP:  59; 6HR PCP:  0.21;

MUNCIE*        LGT RAIN  60  58  92 N3        29.40R FOG
6HR MIN TEMP:  58; 6HR MAX TEMP:  60;

INDIANAPOLIS   DRIZZLE   55  54  96 NW18G25   29.46R FOG
6HR MIN TEMP:  55; 6HR MAX TEMP:  57; 6HR PCP:  0.21;


$$
MIZ043>046-050>051-056>058-064>065-071>073-077>080-251300-
SOUTHWEST LOWER MICHIGAN

CITY           SKY/WX    TMP DP  RH WIND       PRES   REMARKS
BATTLE CREEK   CLOUDY    57  56  96 NE10      29.50R FOG
6HR MIN TEMP:  56; 6HR MAX TEMP:  57; 6HR PCP: TRACE;

BENTON HARBOR  CLOUDY    55  52  89 NW5       29.52R
6HR MIN TEMP:  55; 6HR MAX TEMP:  58; 6HR PCP:  0.01;

COLDWATER*     RAIN      57  57 100 N7        29.47S
6HR MIN TEMP:  57; 6HR MAX TEMP:  59;

HILLSDALE*     CLOUDY    57  55  94 N7        29.46R FOG
HOLLAND        CLOUDY    58  54  86 NE6       29.54R
6HR MIN TEMP:  58; 6HR MAX TEMP:  59; 6HR PCP: TRACE;

GRAND RAPIDS   CLOUDY    56  56 100 N10       29.53R FOG
6HR MIN TEMP:  56; 6HR MAX TEMP:  56; 6HR PCP:  0.07;

KALAMAZOO      CLOUDY    57  54  89 N8        29.50R FOG
6HR MIN TEMP:  57; 6HR MAX TEMP:  58;

STURGIS*       LGT RAIN  57  56  97 N9        29.47R
6HR MIN TEMP:  56; 6HR MAX TEMP:  58; 6HR PCP:  0.03;

THREE RIVERS*  CLOUDY    57  55  94 N6        29.49R
6HR MIN TEMP:  56; 6HR MAX TEMP:  58;


$$
OHZ001>008-015>018-024>025-251300-
NORTHWEST OHIO

CITY           SKY/WX    TMP DP  RH WIND       PRES   REMARKS
DEFIANCE       PTSUNNY   59  57  93 NE7       29.42R
6HR MIN TEMP:  59; 6HR MAX TEMP:  59;

FINDLAY        CLOUDY    62  56  80 E7        29.39S
6HR MIN TEMP:  60; 6HR MAX TEMP:  64;

TOLEDO EXPRESS CLOUDY    59  58  96 NE8       29.43R
6HR MIN TEMP:  58; 6HR MAX TEMP:  59; 6HR PCP: TRACE;

TOLEDO METCALF CLOUDY    61  59  93 N6        29.43S
6HR MIN TEMP:  59; 6HR MAX TEMP:  61;

LIMA           CLOUDY    60  59  96 E7        29.39S
6HR MIN TEMP:  59; 6HR MAX TEMP:  61; 6HR PCP:  0.27;


$$
AND FOR LAKE MICHIGAN COASTAL AND OPEN LAKE BUOY OBSERVATIONS

STATION/POSITION TEMP    WIND        PRES    VSBY  WAVE
                 AIR SEA DIR/SP/G                  HT/PER
                 (F)     (DEG/KT/KT) (MB)    (MI)  (FT/S)
CALUMET HARBOR    52     320/ 12/ 16 1000.8R
MICHIGAN CITY     49     340/ 23/ 26   N/A
BURNS HARBOR      49     340/ 18/ 22 1001.0R
SOUTH LAKE BUOY   46 45   10/ 14/ 16 1000.9          3/ 6
4 MI NW BRIDGMAN  54 56   20/ 16/ 21 1000.1R         5/ 5
MICHIGAN CITY     49 52  340/ 17/ 23   N/A           6/ 5

$$
&&




USA.gov is the U.S. government's official web portal to all federal, state and local government web resources and services.